Weather History for KEYW - March, 2012

Change the Weather History Date:

Friday, March 9, 2012

  Actual Average Record
Temperature  
Mean Temperature 78 °F 73 °F  
Max Temperature 82 °F 78 °F 86 °F (1884)
Min Temperature 74 °F 68 °F 54 °F (2001)
Degree Days  
Heating Degree Days 0 0  
Month to date heating degree days 0 0  
Since 1 July heating degree days 28 66  
Cooling Degree Days 13 8  
Month to date cooling degree days 96 71  
Year to date cooling degree days 577 419  
Growing Degree Days 28 (Base 50)    
Moisture  
Dew Point 69 °F    
Average Humidity 74    
Maximum Humidity 82    
Minimum Humidity 65    
Precipitation  
Precipitation T in 0.08 in 1.87 in (1936)
Month to date precipitation 0.14 0.66  
Year to date precipitation 6.14 4.19  
Snow  
Snow 0.00 in - - ()
Month to date snowfall 0.0  
Since 1 July snowfall 0.0  
Snow Depth 0.00 in    
Sea Level Pressure  
Sea Level Pressure 30.13 in    
Wind  
Wind Speed 10 mph (ESE)    
Max Wind Speed 13 mph    
Max Gust Speed 17 mph    
Visibility 10 miles    
Events      
T = Trace of Precipitation, MM = Missing Value Source: NWS Daily Summary

Daily Weather History Graph

Daily Weather History Graph

Search for Another Location

Airport or City:

Trip Planner

Search our weather history database for the weather conditions in past years. The results will help you decide how hot, cold, wet, or windy it might be!

Date:

Astronomy

Mar. 09, 2012 Rise Set
Actual Time 6:41 AM EST 6:33 PM EST
Civil Twilight 6:18 AM EST 6:56 PM EST
Nautical Twilight 5:52 AM EST 7:22 PM EST
Astronomical Twilight 5:25 AM EST 7:49 PM EST
Moon 8:11 PM EST (3/9) 7:14 AM EST (3/9)
Length of Visible Light 12h 37m
Length of Day
11h 52m
Full, 98% of the Moon is Illuminated
Mar 9
Full
Mar 14
Last Quarter
Mar 22
New
Mar 30
First Quarter
Apr 6
Full

Hourly Weather History & Observations

Time (EST) Temp. Heat Index Dew Point Humidity Pressure Visibility Wind Dir Wind Speed Gust Speed Precip Events Conditions
12:53 AM 75.0 °F - 68.0 °F 79% 30.13 in 10.0 mi East 13.8 mph - N/A   Partly Cloudy
1:53 AM 75.0 °F - 68.0 °F 79% 30.11 in 10.0 mi ESE 11.5 mph - N/A   Partly Cloudy
2:53 AM 75.0 °F - 68.0 °F 79% 30.09 in 10.0 mi SE 11.5 mph - N/A   Overcast
3:53 AM 75.0 °F - 68.0 °F 79% 30.08 in 10.0 mi ESE 9.2 mph - 0.00 in   Mostly Cloudy
4:53 AM 75.0 °F - 68.0 °F 79% 30.09 in 10.0 mi ESE 12.7 mph - 0.00 in   Mostly Cloudy
5:53 AM 75.0 °F - 66.9 °F 76% 30.10 in 10.0 mi ESE 13.8 mph - N/A   Scattered Clouds
6:53 AM 75.0 °F - 66.9 °F 76% 30.12 in 10.0 mi ESE 12.7 mph - N/A   Clear
7:53 AM 75.9 °F - 69.1 °F 79% 30.14 in 10.0 mi SE 9.2 mph - N/A   Mostly Cloudy
8:53 AM 78.1 °F - 68.0 °F 71% 30.17 in 10.0 mi ESE 10.4 mph - N/A   Partly Cloudy
9:53 AM 80.1 °F 83.2 °F 70.0 °F 71% 30.18 in 10.0 mi East 8.1 mph - N/A   Scattered Clouds
10:53 AM 79.0 °F - 69.1 °F 72% 30.18 in 10.0 mi ESE 9.2 mph - N/A   Mostly Cloudy
11:53 AM 80.1 °F 83.2 °F 70.0 °F 71% 30.17 in 10.0 mi ESE 10.4 mph - N/A   Partly Cloudy
12:53 PM 82.0 °F 85.5 °F 69.1 °F 65% 30.15 in 10.0 mi ESE 11.5 mph - N/A   Partly Cloudy
1:53 PM 81.0 °F 84.4 °F 70.0 °F 69% 30.12 in 10.0 mi ESE 10.4 mph - N/A   Clear
2:53 PM 81.0 °F 84.1 °F 69.1 °F 67% 30.11 in 10.0 mi ESE 11.5 mph - N/A   Clear
3:53 PM 80.1 °F 83.2 °F 70.0 °F 71% 30.10 in 10.0 mi ESE 11.5 mph - N/A   Clear
4:53 PM 79.0 °F - 69.1 °F 72% 30.10 in 10.0 mi ESE 11.5 mph - N/A   Clear
5:53 PM 78.1 °F - 69.1 °F 74% 30.10 in 10.0 mi ESE 8.1 mph - N/A   Clear
6:53 PM 77.0 °F - 69.1 °F 76% 30.11 in 10.0 mi East 9.2 mph - N/A   Clear
7:53 PM 75.9 °F - 69.1 °F 79% 30.12 in 10.0 mi East 4.6 mph - N/A   Clear
8:53 PM 75.9 °F - 69.1 °F 79% 30.14 in 10.0 mi ENE 4.6 mph - N/A   Clear
9:20 PM 75.2 °F - 69.8 °F 83% 30.15 in 10.0 mi East 4.6 mph - N/A   Mostly Cloudy
9:48 PM 75.2 °F - 69.8 °F 83% 30.15 in 10.0 mi ENE 5.8 mph - N/A   Scattered Clouds
9:53 PM 75.0 °F - 69.1 °F 82% 30.15 in 10.0 mi ENE 4.6 mph - N/A   Partly Cloudy
10:53 PM 75.0 °F - 69.1 °F 82% 30.15 in 10.0 mi ENE 4.6 mph - N/A   Clear
11:53 PM 75.0 °F - 70.0 °F 84% 30.14 in 10.0 mi ENE 4.6 mph - N/A   Clear